This demonstration page uses our WeatherBlox Daily Observations layout. Learn more.

Left ArrowRight Arrow

39.92423, -83.80882

Hourly Observations for April 4, 2022

Temp ( °F °C ) Dew Point ( °F °C ) Humidity (%) Winds ( mph kmh ) Pressure ( in mb ) Visibility ( mi km ) Precip ( " mm )
12:56 am 00:56 Clear 33 0.6 29 -1.7 85 85 E 7 11 30.06 1018 10 16 0.00 0.00
4:56 am 04:56 Cloudy 38 3.3 33 0.6 83 83 SE 7 11 30.01 1016 10 16 0.00 0.00
5:56 am 05:56 Cloudy 39 3.9 32 0 76 76 S 8 13 30.01 1016 10 16 0.00 0.00
6:56 am 06:56 Cloudy with Light Rain 39 3.9 35 1.7 86 86 SSE 8 13 30.01 1016 10 16 0.00 0.00
7:56 am 07:56 Cloudy with Light Rain 38 3.3 38 3.3 100 100 Calm 30.03 1017 10 16 0.00 0.00
8:56 am 08:56 Cloudy with Light Rain 39 4 N/A N/A SSE 8 13 30.02 1017 10 16 0.00 0.00
9:56 am 09:56 Cloudy with Light Rain 39 4 N/A N/A SE 10 17 30.00 1016 10 16 0.00 0.00
10:56 am 10:56 Cloudy 42 5.6 42 5.6 100 100 SSE 10 17 30.01 1016 10 16 0.00 0.00
11:56 am 11:56 Cloudy 44 6.7 42 5.6 93 93 SSE 10 17 30.00 1016 10 16 0.00 0.00
12:56 pm 12:56 Cloudy 46 7.8 41 5 83 83 SSE 13 20 29.98 1015 10 16 0.00 0.00
1:56 pm 13:56 Cloudy 50 10 41 5 71 71 S 8 13 29.95 1014 10 16 0.00 0.00
2:56 pm 14:56 Cloudy 55 12.8 40 4.4 57 57 SSW 9 15 29.92 1013 10 16 0.00 0.00
3:56 pm 15:56 Cloudy 54 12.2 37 2.8 53 53 SSW 8 13 29.90 1013 10 16 0.00 0.00
4:56 pm 16:56 Mostly Cloudy 56 13.3 36 2.2 47 47 SSW 10 17 29.88 1012 10 16 0.00 0.00
5:56 pm 17:56 Partly Cloudy 56 13.3 38 3.3 51 51 S 9 15 29.87 1012 10 16 0.00 0.00
6:56 pm 18:56 Partly Cloudy 55 12.8 39 3.9 55 55 SSW 7 11 29.88 1012 10 16 0.00 0.00
7:56 pm 19:56 Sunny 52 11.1 40 4.4 64 64 S 5 7 29.88 1012 10 16 0.00 0.00
8:56 pm 20:56 Mostly Clear 48 8.9 39 3.9 71 71 SSE 6 9 29.89 1012 10 16 0.00 0.00
9:56 pm 21:56 Clear 46 7.8 40 4.4 79 79 SSE 8 13 29.90 1013 10 16 0.00 0.00
10:56 pm 22:56 Clear 48 8.9 40 4.4 74 74 S 6 9 29.89 1012 10 16 0.00 0.00
11:56 pm 23:56 Clear 46 7.8 39 3.9 77 77 S 6 9 29.90 1013 10 16 0.00 0.00

Powered by AerisWeather